Менделеево

Россия / Тюменская область     58°17′18″N   68°19′29″E
темп.,
°C
ветер,
м/с
пор.,
м/с
влажн.,
%
обл.,
%
осадки,
мм/ч
давл.,
гПа
погр.,
м
6 марта, сб
сб623:00−5юз3896100 0.8 997208
02:00−8ююз3396100 0.0 99653
05:00−9зюз3595100 0.1 99696
08:00−10з4896100 0.2 997202
11:00−10зюз61092100 0.3 1000480
14:00−9зюз71187100 0.1 1001803
17:00−8зюз61282100 0.2 1002917
20:00−12зюз479179 0.0 1003120
7 марта, вс
вс723:00−14зюз349555 0.0 100565
02:00−15зюз489352 0.0 1006158
05:00−17зюз479758 0.0 1009145
08:00−18юз349892 0.0 101171
11:00−14юз359180 0.1 1012286
14:00−10ю348470 0.0 1012441
17:00−10ююв349176 0.0 1010125
20:00−11вюв3594100 0.0 1008135
8 марта, пн
пн823:00−11всв3596100 0.6 1005215
02:00−11ссв3695100 0.7 1001212
05:00−12с4895100 1.4 1000308
08:00−14сз599596 0.2 1001287
11:00−14зсз579497 0.3 1004322
14:00−11з478798 0.0 1006623
17:00−12зюз369199 0.1 1007306
20:00−14ююз3495100 0.0 100882
9 марта, вт
вт923:00−15ю369598 0.0 1008124
02:00−14ююв489599 0.1 1007240
05:00−12ю5109596 0.2 1005267
08:00−9ю51094100 1.0 1005555
11:00−6ю5889100 1.8 1004708
14:00−4ю6994100 0.6 1002718
17:00−4ююз71191100 1.8 1001891
20:00−7зюз6128977 0.2 1002338
10 марта, ср
ср1023:00−11зюз489455 0.2 1004142
02:00−14з239980 0.0 100621
05:00−17зсз129976 0.1 100820
08:00−18с119992 0.0 100820
11:00−13св119096 0.1 1008213
14:00−10в0185100 0.1 1007374
17:00−9ссз1191100 0.1 1005180
20:00−13с3397100 0.1 100562